Weather History for Branson, MO

Change the Weather History Date:

Saturday, June 29, 2013

  Actual Average (KHRO) Record (KHRO)
Temperature  
Mean Temperature 75 °F 77 °F  
Max Temperature 84 °F 87 °F 104 °F (1934)
Min Temperature 66 °F 66 °F 52 °F (1958)
Degree Days  
Heating Degree Days 0 0  
Month to date heating degree days 3  
Since 1 June heating degree days 3  
Since 1 July heating degree days 4001  
Cooling Degree Days 10 12  
Month to date cooling degree days 255  
Year to date cooling degree days 394  
Since 1 June cooling degree days 255  
Growing Degree Days 25 (Base 50)    
Moisture  
Dew Point 54 °F    
Average Humidity 49    
Maximum Humidity 73    
Minimum Humidity 29    
Precipitation  
Precipitation 0.00 in 0.12 in 1.30 in (1992)
Month to date precipitation 4.11  
Year to date precipitation 22.11  
Snow  
Snow 0.00 in 0.00 in - ()
Month to date snowfall 0.0  
Since 1 June snowfall 0.0  
Since 1 July snowfall 11.5  
Snow Depth -    
Sea Level Pressure  
Sea Level Pressure 29.86 in    
Wind  
Wind Speed 6 mph (NW)    
Max Wind Speed 23 mph    
Max Gust Speed 38 mph    
Visibility 10 miles    
Events      
T = Trace of Precipitation, MM = Missing Value Source: NWS Daily Summary

Daily Weather History Graph

Daily Weather History Graph

Search for Another Location

Airport:

Trip Planner

Search our weather history database for the weather conditions in past years. The results will help you decide how hot, cold, wet, or windy it might be!

Date:

Astronomy

Jun. 29, 2013 Rise Set
Actual Time 5:57 AM CDT 8:35 PM CDT
Civil Twilight 5:26 AM CDT 9:05 PM CDT
Nautical Twilight 4:49 AM CDT 9:43 PM CDT
Astronomical Twilight 4:06 AM CDT 10:25 PM CDT
Moon 12:15 AM CDT (6/29) 12:57 PM CDT (6/29)
Length of Visible Light 15h 38m
Length of Day
14h 37m
Waning Gibbous, 55% of the Moon is Illuminated
Jun 29
Waning Gibbous
Jun 29
Last Quarter
Jul 8
New
Jul 15
First Quarter
Jul 22
Full

Hourly Weather History & Observations

Time (CDT) Temp. Heat Index Dew Point Humidity Pressure Visibility Wind Dir Wind Speed Gust Speed Precip Events Conditions
12:15 AM 71.6 °F - 57.2 °F 60% 29.89 in 10.0 mi Calm Calm - N/A   Clear
12:35 AM 73.4 °F - 57.2 °F 57% 29.89 in 10.0 mi Calm Calm - N/A   Clear
12:55 AM 71.6 °F - 57.2 °F 60% 29.89 in 10.0 mi Calm Calm - N/A   Clear
1:15 AM 71.6 °F - 57.2 °F 60% 29.89 in 10.0 mi Calm Calm - N/A   Clear
1:55 AM 71.6 °F - 57.2 °F 60% 29.89 in 10.0 mi Calm Calm - N/A   Clear
2:35 AM 69.8 °F - 55.4 °F 60% 29.89 in 10.0 mi Calm Calm - N/A   Clear
2:55 AM 71.6 °F - 55.4 °F 57% 29.88 in 10.0 mi Calm Calm - N/A   Clear
3:15 AM 71.6 °F - 57.2 °F 60% 29.88 in 10.0 mi Calm Calm - N/A   Clear
3:35 AM 68.0 °F - 57.2 °F 68% 29.88 in 10.0 mi Calm Calm - N/A   Clear
3:55 AM 68.0 °F - 57.2 °F 68% 29.88 in 10.0 mi Calm Calm - N/A   Clear
4:15 AM 66.2 °F - 57.2 °F 73% 29.88 in 10.0 mi Calm Calm - N/A   Clear
4:35 AM 68.0 °F - 57.2 °F 68% 29.88 in 10.0 mi Calm Calm - N/A   Clear
4:55 AM 68.0 °F - 57.2 °F 68% 29.88 in 10.0 mi Calm Calm - N/A   Clear
6:48 AM 68.0 °F - 57.2 °F 68% 29.88 in 10.0 mi WNW 9.2 mph - N/A   Clear
7:45 AM 71.6 °F - 57.2 °F 60% 29.88 in 10.0 mi WNW 5.8 mph - N/A   Clear
8:45 AM 73.4 °F - 55.4 °F 53% 29.89 in 10.0 mi NW 13.8 mph 20.7 mph N/A   Clear
9:45 AM 78.8 °F - 53.6 °F 42% 29.89 in 10.0 mi NW 13.8 mph 25.3 mph N/A   Clear
10:45 AM 80.6 °F 80.3 °F 53.6 °F 39% 29.88 in 10.0 mi WNW 12.7 mph 26.5 mph N/A   Partly Cloudy
11:51 AM 82.4 °F - 50.0 °F 32% 29.88 in 10.0 mi NW 19.6 mph 31.1 mph N/A   Scattered Clouds
12:47 PM 82.4 °F - 48.2 °F 30% 29.87 in 10.0 mi WNW 23.0 mph 35.7 mph N/A   Scattered Clouds
1:45 PM 84.2 °F - 48.2 °F 29% 29.85 in 10.0 mi NW 15.0 mph 38.0 mph N/A   Mostly Cloudy
2:45 PM 84.2 °F - 50.0 °F 30% 29.83 in 10.0 mi NW 18.4 mph 33.4 mph N/A   Mostly Cloudy
3:45 PM 84.2 °F - 48.2 °F 29% 29.83 in 10.0 mi NW 20.7 mph 35.7 mph N/A   Mostly Cloudy
4:51 PM 84.2 °F - 48.2 °F 29% 29.82 in 10.0 mi NNW 20.7 mph 33.4 mph N/A   Scattered Clouds
5:48 PM 82.4 °F - 48.2 °F 30% 29.82 in 10.0 mi NW 17.3 mph 26.5 mph N/A   Scattered Clouds
6:52 PM 82.4 °F - 48.2 °F 30% 29.81 in 10.0 mi NW 19.6 mph 28.8 mph N/A   Scattered Clouds
7:54 PM 80.6 °F - 50.0 °F 34% 29.81 in 10.0 mi NW 13.8 mph 20.7 mph N/A   Partly Cloudy
8:47 PM 77.0 °F - 50.0 °F 39% 29.82 in 10.0 mi WNW 9.2 mph - N/A   Scattered Clouds
9:15 PM 75.2 °F - 50.0 °F 41% 29.82 in 10.0 mi NW 8.1 mph - N/A   Mostly Cloudy
9:35 PM 77.0 °F - 50.0 °F 39% 29.83 in 10.0 mi NW 10.4 mph - N/A   Overcast
9:55 PM 75.2 °F - 51.8 °F 44% 29.84 in 10.0 mi NNW 10.4 mph 19.6 mph N/A   Overcast
10:15 PM 75.2 °F - 51.8 °F 44% 29.84 in 10.0 mi NNW 9.2 mph - N/A   Overcast
10:35 PM 75.2 °F - 53.6 °F 47% 29.84 in 10.0 mi NW 5.8 mph - N/A   Overcast
10:55 PM 75.2 °F - 53.6 °F 47% 29.84 in 10.0 mi NNW 9.2 mph - N/A   Overcast
11:15 PM 73.4 °F - 53.6 °F 50% 29.84 in 9.0 mi NNW 8.1 mph - N/A   Overcast
11:35 PM 73.4 °F - 53.6 °F 50% 29.85 in 10.0 mi NNW 11.5 mph - N/A   Overcast
11:55 PM 73.4 °F - 55.4 °F 53% 29.85 in 10.0 mi NNW 13.8 mph 20.7 mph N/A   Mostly Cloudy